| time (UTC) | temp C | wind direction | speed KPH | gust KPH | rain 1hr cm | rain 24hr cm | rain mn cm | humidity % | barometer mb |
| 20260507183607 | 13 | 112 | 0.0 | 0.0 | 0.00 | 0.00 | 0.00 | 64 | 1015.7 |
| 20260507182539 | 13 | 90 | 1.6 | 1.6 | 0.00 | 0.00 | 0.00 | 64 | 1015.7 |
| 20260507182018 | 13 | 112 | 1.6 | 1.6 | 0.00 | 0.00 | 0.00 | 64 | 1015.7 |
| 20260507181456 | 13 | 202 | 0.0 | 0.0 | 0.00 | 0.00 | 0.00 | 64 | 1015.6 |
| 20260507180936 | 13 | 112 | 4.8 | 4.8 | 0.00 | 0.00 | 0.00 | 63 | 1015.6 |
| 20260507180415 | 13 | 90 | 3.2 | 3.2 | 0.00 | 0.00 | 0.00 | 64 | 1015.6 |
| 20260507175854 | 13 | 90 | 3.2 | 3.2 | 0.00 | 0.00 | 0.00 | 63 | 1015.6 |
| 20260507175332 | 13 | 158 | 0.0 | 0.0 | 0.00 | 0.00 | 0.00 | 65 | 1015.6 |
| 20260507174812 | 13 | 112 | 3.2 | 3.2 | 0.00 | 0.00 | 0.00 | 63 | 1015.6 |
| 20260507174251 | 13 | 112 | 0.0 | 0.0 | 0.00 | 0.00 | 0.00 | 64 | 1015.6 |
| 20260507173729 | 13 | 112 | 0.0 | 0.0 | 0.00 | 0.00 | 0.00 | 64 | 1015.6 |
| 20260507173208 | 13 | 90 | 0.0 | 0.0 | 0.00 | 0.00 | 0.00 | 65 | 1015.7 |
| 20260507172647 | 13 | 112 | 3.2 | 3.2 | 0.00 | 0.00 | 0.00 | 63 | 1015.7 |
| 20260507171852 | 13 | 112 | 8.0 | 8.0 | 0.00 | 0.00 | 0.00 | 62 | 1015.7 |
| 20260507171331 | 13 | 112 | 3.2 | 3.2 | 0.00 | 0.00 | 0.00 | 63 | 1015.7 |
| 20260507170810 | 13 | 112 | 3.2 | 3.2 | 0.00 | 0.00 | 0.00 | 63 | 1015.6 |
| 20260507170249 | 13 | 135 | 1.6 | 1.6 | 0.00 | 0.00 | 0.00 | 63 | 1015.6 |
| 20260507165728 | 13 | 112 | 3.2 | 3.2 | 0.00 | 0.00 | 0.00 | 62 | 1015.6 |
| 20260507165207 | 13 | 90 | 8.0 | 8.0 | 0.00 | 0.00 | 0.00 | 62 | 1015.7 |
| 20260507164646 | 13 | 112 | 0.0 | 0.0 | 0.00 | 0.00 | 0.00 | 63 | 1015.7 |
| 20260507164125 | 13 | 68 | 9.7 | 9.7 | 0.00 | 0.00 | 0.00 | 63 | 1015.8 |
| 20260507163604 | 13 | 135 | 4.8 | 4.8 | 0.00 | 0.00 | 0.00 | 62 | 1015.8 |
| 20260507163043 | 13 | 112 | 4.8 | 6.4 | 0.00 | 0.00 | 0.00 | 60 | 1015.8 |
| 20260507162248 | 13 | 112 | 3.2 | 3.2 | 0.00 | 0.00 | 0.00 | 64 | 1015.8 |
| 20260507161728 | 13 | 112 | 8.0 | 8.0 | 0.00 | 0.00 | 0.00 | 65 | 1015.8 |
| 20260507161207 | 13 | 90 | 6.4 | 8.0 | 0.00 | 0.00 | 0.00 | 67 | 1015.7 |
| 20260507160646 | 13 | 112 | 6.4 | 8.0 | 0.00 | 0.00 | 0.00 | 68 | 1015.8 |
| 20260507160125 | 13 | 90 | 6.4 | 8.0 | 0.00 | 0.00 | 0.00 | 66 | 1015.8 |
| 20260507155604 | 13 | 90 | 3.2 | 3.2 | 0.00 | 0.00 | 0.00 | 67 | 1015.8 |
| 20260507155043 | 13 | 90 | 4.8 | 4.8 | 0.00 | 0.00 | 0.00 | 63 | 1015.9 |
| 20260507154522 | 13 | 112 | 3.2 | 3.2 | 0.00 | 0.00 | 0.00 | 64 | 1015.9 |
| 20260507154000 | 13 | 112 | 3.2 | 3.2 | 0.00 | 0.00 | 0.00 | 64 | 1016.0 |
| 20260507153440 | 13 | 112 | 3.2 | 3.2 | 0.00 | 0.00 | 0.00 | 64 | 1016.0 |
| 20260507152919 | 13 | 112 | 4.8 | 6.4 | 0.00 | 0.00 | 0.00 | 64 | 1016.1 |
| 20260507152358 | 13 | 112 | 1.6 | 1.6 | 0.00 | 0.00 | 0.00 | 66 | 1016.1 |
| 20260507151837 | 13 | 90 | 0.0 | 0.0 | 0.00 | 0.00 | 0.00 | 68 | 1016.1 |
| 20260507151316 | 13 | 112 | 3.2 | 3.2 | 0.00 | 0.00 | 0.00 | 68 | 1016.1 |
| 20260507150520 | 13 | 90 | 3.2 | 3.2 | 0.00 | 0.00 | 0.00 | 68 | 1016.2 |
| 20260507145959 | 13 | 112 | 6.4 | 8.0 | 0.00 | 0.00 | 0.00 | 67 | 1016.2 |
| 20260507145439 | 13 | 112 | 3.2 | 3.2 | 0.00 | 0.00 | 0.00 | 68 | 1016.2 |
| 20260507144918 | 13 | 112 | 3.2 | 3.2 | 0.00 | 0.00 | 0.00 | 67 | 1016.3 |
| 20260507144357 | 13 | 90 | 3.2 | 3.2 | 0.00 | 0.00 | 0.00 | 67 | 1016.3 |
| 20260507143836 | 13 | 292 | 1.6 | 1.6 | 0.00 | 0.00 | 0.00 | 65 | 1016.4 |
| 20260507143315 | 13 | 112 | 3.2 | 3.2 | 0.00 | 0.00 | 0.00 | 65 | 1016.4 |
| 20260507142754 | 13 | 135 | 4.8 | 4.8 | 0.00 | 0.00 | 0.00 | 68 | 1016.4 |
| 20260507142233 | 13 | 112 | 3.2 | 3.2 | 0.00 | 0.00 | 0.00 | 70 | 1016.5 |
| 20260507141712 | 13 | 135 | 1.6 | 1.6 | 0.00 | 0.00 | 0.00 | 68 | 1016.6 |
| 20260507141152 | 13 | 90 | 8.0 | 8.0 | 0.00 | 0.00 | 0.00 | 69 | 1016.6 |
| 20260507140631 | 13 | 90 | 8.0 | 8.0 | 0.00 | 0.00 | 0.00 | 68 | 1016.7 |
| 20260507140110 | 13 | 112 | 4.8 | 4.8 | 0.00 | 0.00 | 0.00 | 67 | 1016.7 |
| 20260507135548 | 13 | 112 | 1.6 | 1.6 | 0.00 | 0.00 | 0.00 | 68 | 1016.8 |
| 20260507135027 | 12 | 135 | 3.2 | 3.2 | 0.00 | 0.00 | 0.00 | 68 | 1016.8 |
| 20260507134232 | 12 | 112 | 9.7 | 9.7 | 0.00 | 0.00 | 0.00 | 68 | 1016.9 |
| 20260507133711 | 13 | 90 | 8.0 | 8.0 | 0.00 | 0.00 | 0.00 | 68 | 1016.9 |
| 20260507132915 | 13 | 112 | 3.2 | 3.2 | 0.00 | 0.00 | 0.00 | 67 | 1017.0 |
| 20260507132120 | 12 | 112 | 4.8 | 6.4 | 0.00 | 0.00 | 0.00 | 67 | 1017.0 |
| 20260507131600 | 12 | 112 | 8.0 | 9.7 | 0.00 | 0.00 | 0.00 | 70 | 1017.0 |
| 20260507131039 | 12 | 68 | 3.2 | 3.2 | 0.00 | 0.00 | 0.00 | 71 | 1017.1 |
| 20260507130518 | 11 | 112 | 4.8 | 4.8 | 0.00 | 0.00 | 0.00 | 70 | 1017.1 |
| 20260507125723 | 11 | 90 | 4.8 | 4.8 | 0.00 | 0.00 | 0.00 | 74 | 1017.2 |
| 20260507125203 | 11 | 112 | 4.8 | 4.8 | 0.00 | 0.00 | 0.00 | 73 | 1017.2 |
| 20260507124642 | 11 | 112 | 4.8 | 4.8 | 0.00 | 0.00 | 0.00 | 77 | 1017.2 |
| 20260507124121 | 11 | 112 | 3.2 | 3.2 | 0.00 | 0.00 | 0.00 | 77 | 1017.2 |
| 20260507123600 | 10 | 112 | 1.6 | 1.6 | 0.00 | 0.00 | 0.00 | 76 | 1017.2 |
| 20260507123039 | 10 | 112 | 6.4 | 6.4 | 0.00 | 0.00 | 0.00 | 78 | 1017.2 |
| 20260507122519 | 10 | 112 | 8.0 | 8.0 | 0.00 | 0.00 | 0.00 | 78 | 1017.2 |
| 20260507121958 | 10 | 112 | 4.8 | 6.4 | 0.00 | 0.00 | 0.00 | 79 | 1017.2 |
| 20260507121437 | 10 | 112 | 1.6 | 1.6 | 0.00 | 0.00 | 0.00 | 77 | 1017.2 |
| 20260507120916 | 10 | 112 | 8.0 | 8.0 | 0.00 | 0.00 | 0.00 | 77 | 1017.3 |
| 20260507120355 | 10 | 112 | 0.0 | 0.0 | 0.00 | 0.00 | 0.00 | 78 | 1017.4 |
| 20260507115600 | 10 | 112 | 0.0 | 0.0 | 0.00 | 0.00 | 0.00 | 78 | 1017.4 |
| 20260507114806 | 10 | 112 | 3.2 | 3.2 | 0.00 | 0.00 | 0.00 | 79 | 1017.4 |
| 20260507114245 | 10 | 90 | 3.2 | 3.2 | 0.00 | 0.00 | 0.00 | 80 | 1017.4 |
| 20260507113725 | 10 | 112 | 6.4 | 8.0 | 0.00 | 0.00 | 0.00 | 79 | 1017.5 |
| 20260507113204 | 10 | 112 | 3.2 | 3.2 | 0.00 | 0.00 | 0.00 | 78 | 1017.5 |
| 20260507112643 | 10 | 90 | 8.0 | 8.0 | 0.00 | 0.00 | 0.00 | 79 | 1017.5 |
| 20260507112122 | 10 | 90 | 3.2 | 3.2 | 0.00 | 0.00 | 0.00 | 79 | 1017.5 |
| 20260507111327 | 10 | 68 | 6.4 | 6.4 | 0.00 | 0.00 | 0.00 | 79 | 1017.6 |
| 20260507110806 | 10 | 90 | 8.0 | 8.0 | 0.00 | 0.00 | 0.00 | 79 | 1017.6 |
| 20260507110245 | 10 | 112 | 3.2 | 3.2 | 0.00 | 0.00 | 0.00 | 79 | 1017.7 |
| 20260507105723 | 10 | 112 | 6.4 | 6.4 | 0.00 | 0.00 | 0.00 | 79 | 1017.7 |
| 20260507105202 | 10 | 112 | 4.8 | 6.4 | 0.00 | 0.00 | 0.00 | 80 | 1017.6 |
| 20260507104641 | 10 | 112 | 9.7 | 9.7 | 0.00 | 0.00 | 0.00 | 81 | 1017.6 |
| 20260507104120 | 10 | 90 | 4.8 | 4.8 | 0.00 | 0.00 | 0.00 | 81 | 1017.7 |
| 20260507103559 | 10 | 90 | 6.4 | 6.4 | 0.00 | 0.00 | 0.00 | 81 | 1017.6 |
| 20260507103036 | 10 | 68 | 4.8 | 4.8 | 0.00 | 0.00 | 0.00 | 82 | 1017.6 |
| 20260507102515 | 10 | 68 | 8.0 | 8.0 | 0.00 | 0.00 | 0.00 | 80 | 1017.6 |
| 20260507101445 | 9 | 112 | 3.2 | 3.2 | 0.00 | 0.00 | 0.00 | 83 | 1017.6 |
| 20260507100924 | 9 | 90 | 3.2 | 3.2 | 0.00 | 0.00 | 0.00 | 83 | 1017.6 |
| 20260507100403 | 9 | 90 | 3.2 | 3.2 | 0.00 | 0.00 | 0.00 | 84 | 1017.6 |
| 20260507095841 | 9 | 112 | 6.4 | 6.4 | 0.00 | 0.00 | 0.00 | 85 | 1017.6 |
| 20260507095046 | 9 | 90 | 9.7 | 9.7 | 0.00 | 0.00 | 0.00 | 85 | 1017.6 |
| 20260507094421 | 9 | 90 | 9.7 | 11.3 | 0.00 | 0.00 | 0.00 | 84 | 1017.6 |
| 20260507093901 | 9 | 68 | 6.4 | 8.0 | 0.00 | 0.00 | 0.00 | 84 | 1017.6 |
| 20260507093340 | 8 | 112 | 4.8 | 4.8 | 0.00 | 0.00 | 0.00 | 84 | 1017.6 |
| 20260507092819 | 8 | 112 | 3.2 | 3.2 | 0.00 | 0.00 | 0.00 | 86 | 1017.6 |
| 20260507092258 | 8 | 68 | 8.0 | 8.0 | 0.00 | 0.00 | 0.00 | 85 | 1017.6 |
| 20260507091737 | 8 | 45 | 0.0 | 0.0 | 0.00 | 0.00 | 0.00 | 85 | 1017.5 |
| 20260507091217 | 8 | 90 | 9.7 | 11.3 | 0.00 | 0.00 | 0.00 | 86 | 1017.5 |
| 20260507090656 | 8 | 112 | 8.0 | 8.0 | 0.00 | 0.00 | 0.00 | 86 | 1017.6 |
| 20260507090135 | 8 | 90 | 8.0 | 8.0 | 0.00 | 0.00 | 0.00 | 87 | 1017.6 |
| 20260507085340 | 7 | 112 | 8.0 | 8.0 | 0.00 | 0.00 | 0.00 | 87 | 1017.6 |
| 20260507084819 | 7 | 68 | 8.0 | 8.0 | 0.00 | 0.00 | 0.00 | 87 | 1017.6 |
| 20260507084259 | 7 | 68 | 9.7 | 9.7 | 0.00 | 0.00 | 0.00 | 87 | 1017.6 |
| 20260507083738 | 7 | 112 | 8.0 | 8.0 | 0.00 | 0.00 | 0.00 | 87 | 1017.7 |
| 20260507083218 | 7 | 90 | 8.0 | 8.0 | 0.00 | 0.00 | 0.00 | 87 | 1017.7 |
| 20260507082657 | 7 | 90 | 4.8 | 4.8 | 0.00 | 0.00 | 0.00 | 87 | 1017.7 |
| 20260507082137 | 7 | 90 | 11.3 | 11.3 | 0.00 | 0.00 | 0.00 | 87 | 1017.7 |
| 20260507081342 | 7 | 90 | 4.8 | 4.8 | 0.00 | 0.00 | 0.00 | 87 | 1017.7 |
| 20260507080822 | 7 | 112 | 8.0 | 8.0 | 0.00 | 0.00 | 0.00 | 87 | 1017.7 |
| 20260507080301 | 6 | 90 | 3.2 | 3.2 | 0.00 | 0.00 | 0.00 | 87 | 1017.7 |
| 20260507075740 | 6 | 112 | 8.0 | 8.0 | 0.00 | 0.00 | 0.00 | 88 | 1017.7 |
| 20260507075220 | 6 | 112 | 4.8 | 8.0 | 0.00 | 0.00 | 0.00 | 87 | 1017.7 |
| 20260507074424 | 6 | 112 | 3.2 | 3.2 | 0.00 | 0.00 | 0.00 | 87 | 1017.7 |
| 20260507073903 | 6 | 90 | 0.0 | 0.0 | 0.00 | 0.00 | 0.00 | 87 | 1017.7 |
| 20260507073343 | 6 | 112 | 3.2 | 3.2 | 0.00 | 0.00 | 0.00 | 87 | 1017.7 |
| 20260507072822 | 6 | 112 | 0.0 | 0.0 | 0.00 | 0.00 | 0.00 | 88 | 1017.7 |
| 20260507072301 | 6 | 90 | 6.4 | 6.4 | 0.00 | 0.00 | 0.00 | 88 | 1017.6 |
| 20260507071740 | 6 | 90 | 3.2 | 3.2 | 0.00 | 0.00 | 0.00 | 87 | 1017.6 |
| 20260507071219 | 6 | 90 | 0.0 | 0.0 | 0.00 | 0.00 | 0.00 | 87 | 1017.6 |
| 20260507070659 | 6 | 68 | 6.4 | 6.4 | 0.00 | 0.00 | 0.00 | 88 | 1017.5 |
| 20260507065903 | 6 | 90 | 4.8 | 4.8 | 0.00 | 0.00 | 0.00 | 88 | 1017.5 |
| 20260507065342 | 6 | 90 | 8.0 | 8.0 | 0.00 | 0.00 | 0.00 | 87 | 1017.5 |
| 20260507064822 | 6 | 90 | 4.8 | 4.8 | 0.00 | 0.00 | 0.00 | 87 | 1017.5 |
| 20260507064301 | 6 | 112 | 4.8 | 6.4 | 0.00 | 0.00 | 0.00 | 87 | 1017.5 |
| 20260507063740 | 6 | 90 | 6.4 | 8.0 | 0.00 | 0.00 | 0.00 | 87 | 1017.5 |
| 20260507063219 | 6 | 90 | 3.2 | 3.2 | 0.00 | 0.00 | 0.00 | 87 | 1017.6 |
| 20260507062658 | 6 | 90 | 6.4 | 8.0 | 0.00 | 0.00 | 0.00 | 87 | 1017.5 |
| 20260507062137 | 6 | 90 | 6.4 | 8.0 | 0.00 | 0.00 | 0.00 | 88 | 1017.5 |
| 20260507061616 | 6 | 90 | 0.0 | 0.0 | 0.00 | 0.00 | 0.00 | 89 | 1017.5 |
| 20260507061055 | 6 | 68 | 0.0 | 0.0 | 0.00 | 0.00 | 0.00 | 90 | 1017.4 |
| 20260507060534 | 6 | 68 | 0.0 | 0.0 | 0.00 | 0.00 | 0.00 | 89 | 1017.4 |
| 20260507060013 | 6 | 68 | 0.0 | 0.0 | 0.00 | 0.00 | 0.00 | 89 | 1017.4 |
| 20260507055452 | 6 | 112 | 0.0 | 0.0 | 0.00 | 0.00 | 0.00 | 88 | 1017.4 |
| 20260507054931 | 6 | 90 | 3.2 | 3.2 | 0.00 | 0.00 | 0.00 | 88 | 1017.2 |
| 20260507054135 | 6 | 90 | 0.0 | 0.0 | 0.00 | 0.00 | 0.00 | 87 | 1017.2 |
| 20260507053614 | 6 | 90 | 0.0 | 0.0 | 0.00 | 0.00 | 0.00 | 86 | 1017.2 |
| 20260507053053 | 5 | 112 | 4.8 | 6.4 | 0.00 | 0.00 | 0.00 | 87 | 1017.2 |
| 20260507052258 | 5 | 112 | 0.0 | 0.0 | 0.00 | 0.00 | 0.00 | 87 | 1017.2 |
| 20260507051737 | 5 | 112 | 0.0 | 0.0 | 0.00 | 0.00 | 0.00 | 87 | 1017.2 |
| 20260507051216 | 5 | 112 | 1.6 | 1.6 | 0.00 | 0.00 | 0.00 | 88 | 1017.2 |
| 20260507050655 | 5 | 112 | 3.2 | 3.2 | 0.00 | 0.00 | 0.00 | 88 | 1017.2 |
| 20260507050124 | 5 | 90 | 0.0 | 0.0 | 0.00 | 0.00 | 0.00 | 89 | 1017.1 |
| 20260507045603 | 5 | 90 | 0.0 | 0.0 | 0.00 | 0.00 | 0.00 | 89 | 1017.1 |
| 20260507045042 | 5 | 90 | 0.0 | 0.0 | 0.00 | 0.00 | 0.00 | 89 | 1017.2 |
| 20260507044521 | 5 | 90 | 0.0 | 0.0 | 0.00 | 0.00 | 0.00 | 89 | 1017.2 |
| 20260507044000 | 5 | 90 | 0.0 | 0.0 | 0.00 | 0.00 | 0.00 | 88 | 1017.1 |
| 20260507043439 | 5 | 90 | 0.0 | 0.0 | 0.00 | 0.00 | 0.00 | 87 | 1017.1 |
| 20260507042918 | 5 | 112 | 0.0 | 0.0 | 0.00 | 0.00 | 0.00 | 87 | 1017.1 |
| 20260507041850 | 5 | 112 | 0.0 | 0.0 | 0.00 | 0.00 | 0.00 | 87 | 1017.1 |
| 20260507041329 | 5 | 112 | 0.0 | 0.0 | 0.00 | 0.00 | 0.00 | 87 | 1017.2 |
| 20260507040808 | 5 | 112 | 0.0 | 0.0 | 0.00 | 0.00 | 0.00 | 88 | 1017.2 |
| 20260507040247 | 5 | 112 | 0.0 | 0.0 | 0.00 | 0.00 | 0.00 | 88 | 1017.1 |
| 20260507035726 | 5 | 112 | 0.0 | 0.0 | 0.00 | 0.00 | 0.00 | 88 | 1017.2 |
| 20260507035205 | 5 | 112 | 0.0 | 0.0 | 0.00 | 0.00 | 0.00 | 87 | 1017.2 |
| 20260507034644 | 5 | 112 | 0.0 | 0.0 | 0.00 | 0.00 | 0.00 | 87 | 1017.2 |
| 20260507034123 | 5 | 112 | 0.0 | 0.0 | 0.00 | 0.00 | 0.00 | 87 | 1017.2 |
| 20260507033603 | 5 | 112 | 0.0 | 0.0 | 0.00 | 0.00 | 0.00 | 87 | 1017.2 |
| 20260507033042 | 5 | 112 | 4.8 | 8.0 | 0.00 | 0.00 | 0.00 | 88 | 1017.2 |
| 20260507032246 | 5 | 90 | 3.2 | 3.2 | 0.00 | 0.00 | 0.00 | 88 | 1017.2 |
| 20260507031725 | 5 | 90 | 3.2 | 3.2 | 0.00 | 0.00 | 0.00 | 89 | 1017.2 |
| 20260507030929 | 5 | 68 | 6.4 | 6.4 | 0.00 | 0.00 | 0.00 | 90 | 1017.2 |
| 20260507030408 | 5 | 68 | 0.0 | 0.0 | 0.00 | 0.00 | 0.00 | 90 | 1017.2 |
| 20260507025339 | 5 | 90 | 0.0 | 0.0 | 0.00 | 0.00 | 0.00 | 90 | 1017.2 |
| 20260507024818 | 5 | 68 | 3.2 | 3.2 | 0.00 | 0.00 | 0.00 | 89 | 1017.2 |
| 20260507024023 | 5 | 90 | 8.0 | 8.0 | 0.00 | 0.00 | 0.00 | 90 | 1017.3 |
| 20260507023502 | 5 | 90 | 3.2 | 3.2 | 0.00 | 0.00 | 0.00 | 90 | 1017.2 |
| 20260507022941 | 5 | 90 | 6.4 | 6.4 | 0.00 | 0.00 | 0.00 | 90 | 1017.4 |
| 20260507022421 | 5 | 90 | 3.2 | 3.2 | 0.00 | 0.00 | 0.00 | 90 | 1017.3 |
| 20260507021626 | 5 | 90 | 4.8 | 6.4 | 0.00 | 0.00 | 0.00 | 90 | 1017.4 |
| 20260507021105 | 5 | 90 | 3.2 | 3.2 | 0.00 | 0.00 | 0.00 | 90 | 1017.4 |
| 20260507020544 | 5 | 112 | 8.0 | 8.0 | 0.00 | 0.00 | 0.00 | 90 | 1017.3 |
| 20260507015750 | 5 | 68 | 6.4 | 6.4 | 0.00 | 0.00 | 0.00 | 90 | 1017.3 |
| 20260507015229 | 4 | 68 | 4.8 | 4.8 | 0.00 | 0.00 | 0.00 | 91 | 1017.3 |
| 20260507014709 | 4 | 68 | 6.4 | 8.0 | 0.00 | 0.00 | 0.00 | 91 | 1017.3 |
| 20260507014148 | 4 | 90 | 0.0 | 0.0 | 0.00 | 0.00 | 0.00 | 91 | 1017.4 |
| 20260507013627 | 4 | 112 | 4.8 | 4.8 | 0.00 | 0.00 | 0.00 | 91 | 1017.3 |
| 20260507012832 | 4 | 90 | 6.4 | 6.4 | 0.00 | 0.00 | 0.00 | 90 | 1017.3 |
| 20260507012036 | 4 | 112 | 9.7 | 9.7 | 0.00 | 0.00 | 0.00 | 91 | 1017.4 |
| 20260507011516 | 4 | 90 | 8.0 | 8.0 | 0.00 | 0.00 | 0.00 | 91 | 1017.5 |
| 20260507010955 | 4 | 68 | 6.4 | 6.4 | 0.00 | 0.00 | 0.00 | 91 | 1017.4 |
| 20260507010434 | 3 | 90 | 6.4 | 8.0 | 0.00 | 0.00 | 0.00 | 91 | 1017.4 |
| 20260507005640 | 3 | 90 | 4.8 | 4.8 | 0.00 | 0.00 | 0.00 | 91 | 1017.4 |
| 20260507005119 | 3 | 68 | 9.7 | 9.7 | 0.00 | 0.00 | 0.00 | 92 | 1017.4 |
| 20260507004558 | 3 | 90 | 4.8 | 6.4 | 0.00 | 0.00 | 0.00 | 92 | 1017.5 |
| 20260507004038 | 3 | 68 | 6.4 | 6.4 | 0.00 | 0.00 | 0.00 | 92 | 1017.5 |
| 20260507003517 | 3 | 68 | 1.6 | 1.6 | 0.00 | 0.00 | 0.00 | 91 | 1017.5 |
| 20260507002956 | 3 | 90 | 0.0 | 0.0 | 0.00 | 0.00 | 0.00 | 91 | 1017.6 |
| 20260507002435 | 3 | 68 | 3.2 | 3.2 | 0.00 | 0.00 | 0.00 | 91 | 1017.7 |
| 20260507001914 | 3 | 68 | 0.0 | 0.0 | 0.00 | 0.00 | 0.00 | 89 | 1017.8 |
| 20260507001353 | 3 | 68 | 4.8 | 4.8 | 0.00 | 0.00 | 0.00 | 91 | 1017.8 |
| 20260507000558 | 3 | 90 | 4.8 | 4.8 | 0.00 | 0.00 | 0.00 | 91 | 1017.8 |
| 20260507000037 | 3 | 90 | 0.0 | 0.0 | 0.00 | 0.00 | 0.00 | 91 | 1017.7 |
| 20260506235517 | 3 | 90 | 3.2 | 3.2 | 0.00 | 0.00 | 0.00 | 91 | 1017.7 |
| 20260506234448 | 3 | 90 | 0.0 | 0.0 | 0.00 | 0.00 | 0.00 | 90 | 1017.7 |
| 20260506233928 | 3 | 90 | 0.0 | 0.0 | 0.00 | 0.00 | 0.00 | 91 | 1017.8 |
| 20260506233407 | 3 | 90 | 0.0 | 0.0 | 0.00 | 0.00 | 0.00 | 91 | 1017.7 |
| 20260506232846 | 3 | 90 | 0.0 | 0.0 | 0.00 | 0.00 | 0.00 | 91 | 1017.7 |
| 20260506232326 | 3 | 90 | 0.0 | 0.0 | 0.00 | 0.00 | 0.00 | 91 | 1017.7 |
| 20260506231805 | 3 | 90 | 0.0 | 0.0 | 0.00 | 0.00 | 0.00 | 91 | 1017.7 |
| 20260506231245 | 3 | 90 | 0.0 | 0.0 | 0.00 | 0.00 | 0.00 | 90 | 1017.7 |
| 20260506230724 | 3 | 90 | 0.0 | 0.0 | 0.00 | 0.00 | 0.00 | 90 | 1017.8 |
| 20260506230204 | 3 | 90 | 0.0 | 0.0 | 0.00 | 0.00 | 0.00 | 90 | 1017.8 |
| 20260506225643 | 4 | 90 | 0.0 | 0.0 | 0.00 | 0.00 | 0.00 | 90 | 1017.8 |
| 20260506225123 | 4 | 90 | 4.8 | 4.8 | 0.00 | 0.00 | 0.00 | 89 | 1017.9 |
| 20260506224328 | 4 | 90 | 3.2 | 3.2 | 0.00 | 0.00 | 0.00 | 89 | 1017.9 |
| 20260506223808 | 4 | 90 | 4.8 | 4.8 | 0.00 | 0.00 | 0.00 | 90 | 1017.8 |
| 20260506223247 | 4 | 90 | 0.0 | 0.0 | 0.00 | 0.00 | 0.00 | 88 | 1017.8 |
| 20260506222452 | 5 | 90 | 0.0 | 0.0 | 0.00 | 0.00 | 0.00 | 88 | 1017.8 |
| 20260506221931 | 5 | 90 | 0.0 | 0.0 | 0.00 | 0.00 | 0.00 | 87 | 1017.8 |
| 20260506221410 | 5 | 90 | 0.0 | 0.0 | 0.00 | 0.00 | 0.00 | 85 | 1017.7 |
| 20260506220850 | 5 | 112 | 4.8 | 4.8 | 0.00 | 0.00 | 0.00 | 84 | 1017.7 |
| 20260506220329 | 5 | 90 | 0.0 | 0.0 | 0.00 | 0.00 | 0.00 | 85 | 1017.6 |
| 20260506215809 | 5 | 90 | 0.0 | 0.0 | 0.00 | 0.00 | 0.00 | 85 | 1017.6 |
| 20260506215248 | 5 | 112 | 0.0 | 0.0 | 0.00 | 0.00 | 0.00 | 85 | 1017.6 |
| 20260506214728 | 5 | 90 | 0.0 | 0.0 | 0.00 | 0.00 | 0.00 | 85 | 1017.6 |
| 20260506214208 | 5 | 90 | 0.0 | 0.0 | 0.00 | 0.00 | 0.00 | 85 | 1017.6 |
| 20260506213647 | 5 | 90 | 4.8 | 4.8 | 0.00 | 0.00 | 0.00 | 84 | 1017.6 |
| 20260506213126 | 5 | 112 | 4.8 | 4.8 | 0.00 | 0.00 | 0.00 | 85 | 1017.5 |
| 20260506212606 | 5 | 68 | 3.2 | 3.2 | 0.00 | 0.00 | 0.00 | 87 | 1017.6 |
| 20260506212045 | 5 | 90 | 3.2 | 3.2 | 0.00 | 0.00 | 0.00 | 86 | 1017.6 |
| 20260506211524 | 6 | 90 | 3.2 | 3.2 | 0.00 | 0.00 | 0.00 | 86 | 1017.6 |
| 20260506211004 | 6 | 112 | 1.6 | 1.6 | 0.00 | 0.00 | 0.00 | 84 | 1017.6 |
| 20260506210444 | 6 | 112 | 3.2 | 3.2 | 0.00 | 0.00 | 0.00 | 83 | 1017.6 |
| 20260506205923 | 6 | 112 | 0.0 | 0.0 | 0.00 | 0.00 | 0.00 | 83 | 1017.7 |
| 20260506205402 | 6 | 112 | 6.4 | 6.4 | 0.00 | 0.00 | 0.00 | 83 | 1017.6 |
| 20260506204842 | 5 | 90 | 3.2 | 3.2 | 0.00 | 0.00 | 0.00 | 84 | 1017.6 |
| 20260506204321 | 5 | 90 | 4.8 | 4.8 | 0.00 | 0.00 | 0.00 | 85 | 1017.5 |
| 20260506203527 | 5 | 90 | 4.8 | 4.8 | 0.00 | 0.00 | 0.00 | 86 | 1017.5 |
| 20260506203006 | 5 | 90 | 0.0 | 0.0 | 0.00 | 0.00 | 0.00 | 85 | 1017.4 |
| 20260506202446 | 5 | 90 | 0.0 | 0.0 | 0.00 | 0.00 | 0.00 | 85 | 1017.4 |
| 20260506201925 | 5 | 90 | 1.6 | 1.6 | 0.00 | 0.00 | 0.00 | 85 | 1017.4 |
| 20260506201405 | 6 | 90 | 3.2 | 3.2 | 0.00 | 0.00 | 0.00 | 84 | 1017.3 |
| 20260506200844 | 6 | 90 | 3.2 | 3.2 | 0.00 | 0.00 | 0.00 | 82 | 1017.2 |
| 20260506195816 | 7 | 90 | 3.2 | 3.2 | 0.00 | 0.00 | 0.00 | 82 | 1017.2 |
| 20260506195256 | 7 | 90 | 3.2 | 3.2 | 0.00 | 0.00 | 0.00 | 80 | 1017.1 |
| 20260506194628 | 7 | 90 | 4.8 | 4.8 | 0.00 | 0.00 | 0.00 | 78 | 1017.1 |
| 20260506194108 | 7 | 90 | 3.2 | 3.2 | 0.00 | 0.00 | 0.00 | 77 | 1017.0 |
| 20260506193548 | 8 | 90 | 8.0 | 8.0 | 0.00 | 0.00 | 0.00 | 75 | 1017.0 |
| 20260506192753 | 8 | 90 | 4.8 | 4.8 | 0.00 | 0.00 | 0.00 | 76 | 1016.9 |
| 20260506192232 | 8 | 90 | 8.0 | 8.0 | 0.00 | 0.00 | 0.00 | 73 | 1016.9 |
| 20260506191712 | 8 | 90 | 3.2 | 3.2 | 0.00 | 0.00 | 0.00 | 73 | 1016.9 |
| 20260506190918 | 9 | 112 | 8.0 | 8.0 | 0.00 | 0.00 | 0.00 | 72 | 1016.9 |
| 20260506190358 | 9 | 112 | 8.0 | 8.0 | 0.00 | 0.00 | 0.00 | 73 | 1016.8 |
| 20260506185838 | 9 | 112 | 9.7 | 9.7 | 0.00 | 0.00 | 0.00 | 71 | 1016.8 |
| 20260506185043 | 9 | 90 | 11.3 | 11.3 | 0.00 | 0.00 | 0.00 | 71 | 1016.8 |
| 20260506184523 | 9 | 90 | 12.9 | 14.5 | 0.00 | 0.00 | 0.00 | 69 | 1016.8 |